Regional Weather Roundup
Issued by NWS Albany, NY

Current Version | Previous Version | Text Only | Print | Product List | Glossary Off
Versions: 1 2 3 4 5 6 7 8 9 10 11 12 13 14 15 16 17 18 19 20 21 22 23 24 25 26 27
000 ASUS41 KALY 251710 RWRALY NEW YORK STATE HOURLY WEATHER ROUNDUP NATIONAL WEATHER SERVICE ALBANY NY 100 PM EDT THU MAY 25 2017 NOTE: "FAIR" INDICATES FEW OR NO CLOUDS BELOW 12,000 FEET WITH NO SIGNIFICANT WEATHER AND/OR NO OBSTRUCTIONS TO VISIBILITY. NYZ032-033-038>043-046>054-057>066-NYZ062>081-082-084-251800- EAST CITY SKY/WX TMP DP RH WIND PRES REMARKS ALBANY LGT RAIN 58 51 78 E6 29.70F GLENS FALLS NOT AVBL POUGHKEEPSIE LGT RAIN 58 55 90 NE7 29.62F FOG NEWBURGH LGT RAIN 57 57 100 E14 29.64F FOG MONTGOMERY LGT RAIN 58 56 93 NE8 29.62S WHITE PLAINS LGT RAIN 55 54 96 E15G31 29.62F VSB 1 ISLIP LGT RAIN 58 57 97 E13G22 29.62F FOG NEW YORK CITY LGT RAIN 57 56 96 NE15 29.60F FOG CENTRAL PARK LGT RAIN 57 57 100 E9 29.62F FOG $$ NYZ005>009-017-018-044>046-055-056-251800- CENTRAL CITY SKY/WX TMP DP RH WIND PRES REMARKS FULTON RAIN 55 51 86 E9G22 29.57F FOG SYRACUSE LGT RAIN 55 53 93 E18G26 29.57F ROME RAIN 56 52 86 E14 29.64F ELMIRA LGT RAIN 58 54 86 SE13G20 29.54R FOG BINGHAMTON LGT RAIN 55 54 96 SE18 29.54F FOG MONTICELLO CLOUDY 54 54 100 E12G24 29.63R $$ NYZ026>034-041>043-087-251800- NORTH CITY SKY/WX TMP DP RH WIND PRES REMARKS WATERTOWN LGT RAIN 57 55 93 E8 29.63S FOG FORT DRUM NOT AVBL OGDENSBURG FAIR 67 52 57 E9 29.66F MASSENA CLOUDY 66 48 52 E13 29.72F SARANAC LAKE LGT RAIN 57 46 66 E12G20 29.71F PLATTSBURGH CLOUDY 62 50 64 CALM 29.77F $$ NYZ001>004-010>016-019>021-085-251800- WEST CITY SKY/WX TMP DP RH WIND PRES REMARKS NIAGARA FALLS LGT RAIN 58 53 84 E10 29.51F BUFFALO LGT RAIN 56 53 90 E10 29.51F DUNKIRK CLOUDY 57 57 100 N6 29.49F FOG JAMESTOWN CLOUDY 55 52 88 SE7 29.50S WELLSVILLE CLOUDY 57 53 86 SE12G25 29.53S FOG ROCHESTER LGT RAIN 57 55 93 E9 29.55F FOG PENN YAN LGT RAIN 57 54 89 CALM 29.54F FOG $$ KEY WCI = WIND CHILL INDEX VSB = VISIBILITY HX = HEAT INDEX $$

USA.gov is the U.S. government's official web portal to all federal, state and local government web resources and services.